Regional Weather Roundup
Issued by NWS Upton, NY

Current Version | Previous Version | Graphics & Text | Print | Product List | Glossary Off
Versions: 1 2 3 4 5 6 7 8 9 10 11 12 13 14 15 16 17 18 19 20 21 22 23 24 25 26 27

000
ASUS41 KOKX 260106
RWROKX

Regional Weather Roundup
National Weather Service New York NY
900 PM EDT WED APR 25 2018

Note: "FAIR" indicates few or no clouds below 12,000 feet with no
significant weather and/or obstructions to visibility.

NYZ071-072-176-178-NJZ106-104-260200-
New York City Metro Area

CITY           SKY/WX    TMP DP  RH WIND       PRES   REMARKS
Central Park   CLOUDY    56  55  97 SE5       29.69S FOG
Bronx Bot Gard   N/A     54  52  94 E6        29.67F
Bronx Lehman C   N/A     54  54 100 E7          N/A
LaGuardia Arpt DRZL/FOG  53  52  96 NE8       29.67R VSB 1/4
Queens College   N/A     55  54  94 E2          N/A
Kennedy Intl   FOG       53  53 100 CALM      29.68S VSB 1/4
Breezy Point     N/A     48 N/A N/A E2          N/A
Brooklyn Coll    N/A     52  52 100 E3          N/A
Staten Island    N/A     55  55 100 SW1         N/A
Newark/Liberty FOG       55  55 100 E5        29.66F VSB 1/2
Teterboro      FOG       56  56 100 NE3       29.65F VSB 1
$$

NYZ177-179-078>081-260200-
Long Island New York

CITY           SKY/WX    TMP DP  RH WIND       PRES   REMARKS
Jones Beach      N/A     52 N/A N/A SE2         N/A
Wantagh          N/A     54  52  94 SE5         N/A
Hempstead        N/A     54  54 100 S2        29.70S
Matinecock Pt    N/A     48 N/A N/A E5          N/A
Farmingdale    FOG       54  54 100 S6        29.67F VSB 1
MacArthur/ISP  DRZL/FOG  54  54 100 S6        29.67F VSB 1/4
Stony Brook      N/A     55  55 100 S3          N/A
Shirley        FOG       54  54 100 SE8       29.68F VSB 1/2
Mt Sinai Harb    N/A    N/A N/A N/A S7          N/A
Westhampton    FOG       54  52  93 S7        29.70S VSB 1/2
East Hampton   FOG       52  52  99 SE7       29.69F VSB 1
Southold         N/A     57  55  94 S10         N/A
Montauk          N/A     54  54 100 S8        29.71F
$$

NYZ052-065-067-260200-
Hudson Valley

CITY           SKY/WX    TMP DP  RH WIND       PRES   REMARKS
White Plains   FOG       54  54 100 SE5       29.67S VSB 1/4
Larchmont Harb   N/A     48 N/A N/A N7          N/A
Croton On Huds   N/A     57 N/A N/A MISG        N/A
Somers           N/A     55  55 100 E3          N/A
Brewster         N/A     55  54  94 E2          N/A
Newburgh       CLOUDY    57  57 100 CALM      29.68S FOG
Montgomery     LGT RAIN  57  56  96 N3        29.66R FOG
Otisville        N/A     55  55 100 N2          N/A
Warwick          N/A     57  57 100 NW1         N/A
Suffern          N/A     55  55 100 E1          N/A
Poughkeepsie   CLOUDY    58  55  90 CALM      29.66S
Albany         LGT RAIN  55  53  93 NW6       29.69R FOG
$$

NJZ001-105-106-008-010-013-015-019>022-104-260200-
New Jersey

CITY           SKY/WX    TMP DP  RH WIND       PRES   REMARKS
Newark/Liberty FOG       55  55 100 E5        29.66F VSB 1/2
Teterboro      FOG       56  56 100 NE3       29.65F VSB 1
Caldwell       CLOUDY    57  57 100 CALM      29.67S FOG
Somerville     CLOUDY    59  59 100 W3        29.65S
Linden         NOT AVBL
Perth Amboy      N/A     52 N/A N/A SE6         N/A
Sussex         CLOUDY    58  57  97 CALM      29.68R FOG
Andover          N/A     58  57  97 CALM      29.67R
Trenton        CLOUDY    60  58  92 N3        29.66R FOG
Millville      CLOUDY    61  58  90 W5        29.65R
Atlantic City  CLOUDY    55  54  96 S5        29.66R FOG
Wrightstown    CLOUDY    61  59  92 CALM      29.64
Toms River     CLOUDY    57  56  96 SE5       29.68R
Belmar         CLOUDY    55  54  96 SE3       29.68R FOG
$$

PAZ047>061-062-071-260200-
Eastern Pennsylvania

CITY           SKY/WX    TMP DP  RH WIND       PRES   REMARKS
Philadelphia   CLOUDY    63  59  87 NW10      29.67R
Allentown      CLOUDY    60  57  89 W5        29.68R
Scranton       RAIN      56  56 100 N6        29.69S FOG
$$

CTZ002-004>006-009-010-012-RIZ004-006-007-MAZ004-011-015-260200-
Southern New England

 In CT

CITY           SKY/WX    TMP DP  RH WIND       PRES   REMARKS
Bradley Intl   DRIZZLE   56  56 100 SE5       29.71S FOG
Hartford       HVY RAIN  56  56 100 CALM      29.70F VSB 1
Danbury        CLOUDY    56  55  97 NE6       29.69S
Wtrbury/Oxford RAIN      54  54 100 E7        29.70S FOG
Norwalk Harbor   N/A     50 N/A N/A NE12        N/A
Bridgeport     CLOUDY    53  52  96 E9        29.68F FOG
Meriden        LGT RAIN  56  55  97 CALM      29.70S FOG
New Haven      FOG       56  55  97 SE5       29.68F VSB 1
Chester        LGT RAIN  54  54 100 CALM      29.71S VSB 1/2
Groton         FOG       53  53 100 SE8       29.70F VSB 1/2
Willimantic    LGT RAIN  55  54  96 CALM      29.72F FOG

 In RI

CITY           SKY/WX    TMP DP  RH WIND       PRES   REMARKS
Providence     LGT RAIN  54  54 100 S5        29.75F VSB 1
Block Island   FOG       53  53 100 SE16      29.72F VSB 1/2
Westerly       FOG       52  52 100 SE9       29.72F VSB 1/2

In MA

CITY           SKY/WX    TMP DP  RH WIND       PRES   REMARKS
Boston         RAIN      55  55 100 S6        29.76S FOG
Worcester      LGT RAIN  52  52 100 SE5       29.73F FOG
Westfield      LGT RAIN  56  56 100 SE3       29.70  FOG
Provincetown   CLOUDY    51  50  96 S12       29.79S
Nantucket      LGT RAIN  52  52 100 SE20      29.78F FOG
$$

ANZ330-335-338-340-345-350-353-355-260200-
Coastal Marine Observations


STATION/POSITION TIME  SKY/WX   TEMP    WIND        PRES    VSBY  WAVE
                                AIR SEA DIR/SP/G                  HT/PER
                 (UTC)          (F)     (DEG/KT/KT) (MB)    (MI)  (FT/S)
NY Harb Entrance 0050            49 47  150/  6/ 10 1004.6          8/11
20 S Fire Island 0050            48 44  180/  8/ 10 1004.9         11/11
23 SSW Montauk P 0050            50 44  170/ 14/ 16 1005.6         12/11
15 E Barnegat Li 0030               46                N/A           9/11
Hudson Canyon    0050            52 45  170/ 14/ 17 1005.1         14/11
Kings Point      0048            48 47   50/  4/  5 1005.7
Execution Rocks  NOT AVBL
Western LI Sound NOT AVBL
Central LI Sound 0030            52     100/  6/  8   N/A           1
Robbins Reef     0048            54     110/  4/  5 1005.0
$$


>>>>>>>>>>>>>>>>>>>>>>>>>>>> KEY <<<<<<<<<<<<<<<<<<<<<<<<<<<
>                                                          <
>     SKY/WX - Sky Condition/Present Weather               <
>     TMP    - Temperature in Fahrenheit                   <
>     DP     - Dew Point in Fahrenheit                     <
>     RH     - Relative Humidity in Percent                <
>     WIND   - Direction (from) and Speed in MPH           <
>     PRES   - Mean Sea Level Pressure (inches of Hg)      <
>     WCI    - Wind Chill Index                            <
>     VSB    - Visibility in Miles                         <
>     HX     - Heat Index                                  <
>     TC     - Temperature in Celsius                      <
>     VRB    - Varibale Wind Direction                     <
>                                                          <
>>>>>>>>>>>>>>>>>>>>>>>>>>>> KEY <<<<<<<<<<<<<<<<<<<<<<<<<<<




USA.gov is the U.S. government's official web portal to all federal, state and local government web resources and services.